{"data":{"norad_id":61054,"epoch":"2026-05-24T15:49:28.237440Z","epoch_age_seconds":108516,"freshness":"FRESH","line1":"1 61054U 24164E   26144.65935460  .00004081  00000+0  38515-4 0  9996","line2":"2 61054  53.1585 296.5568 0000738  41.9703 318.1371 15.69714707 97353","mean_motion":15.69714707,"eccentricity":7.38e-5,"inclination_deg":53.1585,"raan_deg":296.5568,"arg_perigee_deg":41.9703,"mean_anomaly_deg":318.1371,"bstar":3.8515e-5,"rev_number":9735,"period_min":91.7364151319,"perigee_km":359.21602747046,"apogee_km":360.21053417191,"semimajor_km":6737.8502808212,"source":"CELESTRAK","updated_at":"2026-05-25T13:38:19.353784Z"}}